Regional Weather Roundup
Issued by NWS

Home | Current Version | Previous Version | Text Only | Print | Product List | Glossary Off
Versions: 1 2 3 4 5 6 7 8 9 10 11 12 13 14 15 16 17 18 19 20 21 22 23 24 25 26 27 28 29 30 31 32 33 34 35 36 37 38 39 40 41 42 43 44 45 46 47 48 49 50

159
ASUS43 KLOT 291004
RWRIL

ILLINOIS REGIONAL WEATHER ROUNDUP
NATIONAL WEATHER SERVICE CHICAGO/ROMEOVILLE IL
500 AM CDT THU SEP 29 2016

NOTE: "FAIR" INDICATES FEW OR NO CLOUDS BELOW 12,000 FEET WITH NO
SIGNIFICANT WEATHER AND/OR OBSTRUCTIONS TO VISIBILITY.

* THESE STATIONS ARE NOT UNDER NWS QUALITY CONTROL. THEY ALSO MAY NOT
  REPORT WEATHER SUCH AS PRECIPITATION OR FOG.

ILZ001-002-007-009-015-016-024-291100-
NORTHWEST ILLINOIS

CITY           SKY/WX    TMP DP  RH WIND       PRES   REMARKS
MOLINE         CLEAR     55  49  80 N9        30.21R
STERLING*      MOCLDY    55  52  89 N13       30.18S
$$

ILZ003-004-008-010-011-017-018-291100-
NORTH CENTRAL ILLINOIS

CITY           SKY/WX    TMP DP  RH WIND       PRES   REMARKS
ROCKFORD       CLOUDY    58  53  84 N22G30    30.20R
FREEPORT*      CLOUDY    55  51  89 N9G20     30.22S
ROCHELLE*      CLOUDY    56  53  89 N15G21    30.16S
$$

ILZ005-006-012>014-019>023-291100-
NORTHEAST ILLINOIS

CITY           SKY/WX    TMP DP  RH WIND       PRES   REMARKS
CHICAGO-OHARE  CLOUDY    62  56  80 NE15G29   30.09R
CHICAGO-MIDWAY CLOUDY    64  56  75 N16G25    30.07R
AURORA         CLOUDY    61  55  81 N14       30.11R
LANSING*       DRIZZLE   60  58  92 E12G22    30.07R
WAUKEGAN       CLOUDY    60  56  86 N14G22    30.12R
DUPAGE AIRPORT CLOUDY    60  55  83 N20G26    30.10R
KANKAKEE*      CLOUDY    59  57  93 N9        30.07R
WHEELING       CLOUDY    62  56  80 N10G26    30.12R
NORTHERLY ISL    N/A     62  56  80 NE20        N/A
$$

LMZ740>746-291100-
SOUTHERN LAKE MICHIGAN

STATION/POSITION SKY/WX   TEMP    WIND        PRES    VSBY  WAVE
                          AIR SEA DIR/SP/G                  HT/PER
                          (F)     (DEG/KT/KT) (MB)    (MI)  (FT/S)
SOUTHERN BUOY              65 69   50/ 23/ 27 1018.0          7/ 7
WILMETTE HARBOR            63 56   60/ 17/ 23   N/A           9/ 7
HARRISON CRIB              65      40/ 25/ 28   N/A
BURNHAM HARBOR             62      40/ 19       N/A
CALUMET HARBOR             63      20/ 16/ 22 1017.7R
BURNS HARBOR               61      60/ 20/ 24 1017.9R
MICHIGAN CITY              59      40/ 19/ 21   N/A
MICHIGAN CITY 6N           62 65   50/ 17/ 23   N/A           7/ 7
ST. JOSEPH                 60 64   40/ 16/ 21 1018.3R         6/ 6
$$

ILZ025>027-034>036-040-047-049-050-058-095>099-291100-
WEST-CENTRAL ILLINOIS

CITY           SKY/WX    TMP DP  RH WIND       PRES   REMARKS
QUINCY         CLEAR     51  49  92 NW9       30.20R
GALESBURG*     CLEAR     51  48  91 NW7       30.19R
MACOMB*        CLEAR     52  49  91 N13       30.21R
$$

ILZ028>032-037-038-041>044-048-051>054-059>061-291100-
CENTRAL ILLINOIS

CITY           SKY/WX    TMP DP  RH WIND       PRES   REMARKS
BLOOMINGTON    CLOUDY    56  52  86 N18       30.08R
DECATUR        CLOUDY    57  51  80 NW15      30.05S
PEORIA         CLEAR     54  52  93 N8        30.13R
LINCOLN*       CLOUDY    55  52  90 NW6       30.09S
SPRINGFIELD    CLEAR     55  50  83 N12       30.11R
TAYLORVILLE    NOT AVBL
$$

ILZ033-039-045-046-055>057-062-063-291100-
EAST-CENTRAL ILLINOIS

CITY           SKY/WX    TMP DP  RH WIND       PRES   REMARKS
CHAMPAIGN      LGT RAIN  56  54  93 N8        30.03S
MATTOON        CLOUDY    55  52  89 NW13      30.01S
$$

ILZ079-100>102-291100-
SOUTHWEST ILLINOIS

CITY           SKY/WX    TMP DP  RH WIND       PRES   REMARKS
CAHOKIA*       PTCLDY    57  48  72 N15       30.12R
SPARTA*        CLEAR     52  49  92 W6        30.11R
$$

ILZ064>066-069>071-074>076-080>082-084>086-088>090-092>094-291100-
SOUTH-CENTRAL ILLINOIS

CITY           SKY/WX    TMP DP  RH WIND       PRES   REMARKS
CARBONDALE     PTCLDY    52  51  97 NW7       30.08S
MT. VERNON     CLOUDY    54  46  76 CALM      30.06F
CENTRALIA*     CLOUDY    56  52  88 NW10G18   30.06S
SALEM*         CLOUDY    55  51  85 NW7       30.06F
METROPOLIS*    CLEAR     51  49  90 CALM      30.07F
$$

ILZ067-068-072-073-078-083-087-091-291100-
SOUTHEAST ILLINOIS

CITY           SKY/WX    TMP DP  RH WIND       PRES   REMARKS
LAWRENCEVILLE  RAIN      55  51  86 NW7       30.02R
FLORA*         CLOUDY    56  52  85 NW9       30.04S
HARRISBURG*    CLEAR     51  50  95 NW6       30.06R
ROBINSON*      RAIN      54  53  97 NW3       30.02S
$$

ABBREVIATIONS USED IN REMARKS
   TC - TEMPERATURE IN CELSIUS
  WCI - WIND CHILL INDEX
   HX - HEAT INDEX
  VSB - VISIBILITY
$$





USA.gov is the U.S. government's official web portal to all federal, state and local government web resources and services.